Westerly, RI

11:05 AM EDT on April 25, 2018 (GMT -0400)
Westerly State

Weather History for KWST - September, 2013

Change the Weather History Date:

Friday, September 13, 2013

  Actual Average (KGON) Record (KGON)
Temperature  
Mean Temperature 69 °F -  
Max Temperature 77 °F 74 °F 86 °F (1957)
Min Temperature 62 °F 55 °F 33 °F (1996)
Cooling Degree Days 4    
Growing Degree Days 19 (Base 50)    
Moisture  
Dew Point 67 °F    
Average Humidity 92    
Maximum Humidity 100    
Minimum Humidity 58    
Precipitation  
Precipitation 0.00 in - - ()
Sea Level Pressure  
Sea Level Pressure 29.65 in    
Wind  
Wind Speed 3 mph (West)    
Max Wind Speed 10 mph    
Max Gust Speed 21 mph    
Visibility 5 miles    
Events Fog , Rain    
Averages and records for this station are not official NWS values.
T = Trace of Precipitation, MM = Missing Value Source: NWS Daily Summary

Daily Weather History Graph

Daily Weather History Graph

Search for Another Location

Airport or City:

Astronomy

Sep. 13, 2013 Rise Set
Actual Time 6:25 AM EDT 6:59 PM EDT
Civil Twilight 5:57 AM EDT 7:27 PM EDT
Nautical Twilight 5:25 AM EDT 8:00 PM EDT
Astronomical Twilight 4:51 AM EDT 8:33 PM EDT
Moon 2:49 PM EDT (9/13) No Moon Set
Length of Visible Light 13h 29m
Length of Day
12h 33m
First Quarter, 61% of the Moon is Illuminated
Sep 13
First Quarter
Sep 19
Full
Sep 26
Last Quarter
Oct 4
New
Oct 11
First Quarter

Hourly Weather History & Observations

Time (EDT) Temp. Dew Point Humidity Pressure Visibility Wind Dir Wind Speed Gust Speed Precip Events Conditions
12:08 AM 68.0 °F 68.0 °F 100% 29.71 in 8.0 mi SSW 3.5 mph - 0.00 in Rain Light Rain
12:18 AM 68.0 °F 68.0 °F 100% 29.70 in 8.0 mi South 9.2 mph - 0.00 in   Overcast
12:53 AM 69.1 °F 68.0 °F 96% 29.70 in 9.0 mi South 6.9 mph - 0.00 in   Overcast
1:37 AM 68.0 °F 68.0 °F 100% 29.68 in 6.0 mi South 4.6 mph - 0.00 in   Overcast
1:53 AM 68.0 °F 68.0 °F 100% 29.68 in 5.0 mi South 4.6 mph - 0.00 in   Overcast
2:14 AM 69.8 °F 68.0 °F 94% 29.66 in 3.0 mi Calm Calm - N/A   Overcast
2:21 AM 68.0 °F 68.0 °F 100% 29.65 in 2.5 mi Calm Calm - N/A   Overcast
2:35 AM 69.8 °F 69.8 °F 100% 29.65 in 1.5 mi Calm Calm - N/A   Overcast
2:53 AM 69.1 °F 69.1 °F 100% 29.64 in 1.5 mi Calm Calm - N/A   Overcast
3:07 AM 69.8 °F 69.8 °F 100% 29.64 in 2.0 mi Calm Calm - N/A   Overcast
3:18 AM 69.8 °F 69.8 °F 100% 29.63 in 3.0 mi Calm Calm - N/A   Overcast
3:36 AM 69.8 °F 69.8 °F 100% 29.63 in 2.0 mi Calm Calm - N/A   Overcast
3:43 AM 69.8 °F 69.8 °F 100% 29.63 in 1.5 mi Calm Calm - N/A   Overcast
3:53 AM 69.1 °F 69.1 °F 100% 29.63 in 1.8 mi Calm Calm - N/A   Overcast
3:59 AM 69.8 °F 69.8 °F 100% 29.63 in 3.0 mi Calm Calm - N/A   Overcast
4:29 AM 69.8 °F 69.8 °F 100% 29.63 in 4.0 mi Calm Calm - 0.00 in   Overcast
4:39 AM 69.8 °F 69.8 °F 100% 29.63 in 2.5 mi Calm Calm - 0.00 in Rain Light Rain
4:46 AM 69.8 °F 69.8 °F 100% 29.63 in 4.0 mi Calm Calm - 0.00 in   Overcast
4:53 AM 69.1 °F 69.1 °F 100% 29.63 in 4.0 mi Calm Calm - 0.00 in   Overcast
5:05 AM 68.0 °F 68.0 °F 100% 29.63 in 1.8 mi Calm Calm - N/A   Overcast
5:29 AM 68.0 °F 68.0 °F 100% 29.62 in 0.5 mi Calm Calm - N/A Fog Fog
5:41 AM 68.0 °F 68.0 °F 100% 29.63 in 1.5 mi Calm Calm - N/A   Overcast
5:51 AM 68.0 °F 68.0 °F 100% 29.63 in 0.2 mi Calm Calm - N/A Fog Fog
5:53 AM 68.0 °F 68.0 °F 100% 29.63 in 0.2 mi Calm Calm - N/A Fog Fog
6:27 AM 68.0 °F 68.0 °F 100% 29.63 in 0.5 mi Calm Calm - N/A Fog Fog
6:37 AM 68.0 °F 68.0 °F 100% 29.64 in 0.2 mi Calm Calm - N/A Fog Fog
6:46 AM 68.0 °F 68.0 °F 100% 29.63 in 0.5 mi Calm Calm - N/A Fog Fog
6:53 AM 68.0 °F 68.0 °F 100% 29.64 in 0.5 mi Calm Calm - N/A Fog Fog
7:12 AM 68.0 °F 68.0 °F 100% 29.63 in 1.5 mi Calm Calm - 0.00 in Rain Light Rain
7:20 AM 68.0 °F 68.0 °F 100% 29.64 in 3.0 mi Calm Calm - 0.00 in Rain Light Rain
7:45 AM 68.0 °F 68.0 °F 100% 29.64 in 2.5 mi Calm Calm - 0.00 in Rain Light Rain
7:53 AM 68.0 °F 68.0 °F 100% 29.64 in 2.0 mi Calm Calm - 0.00 in Rain Light Rain
8:00 AM 68.0 °F 68.0 °F 100% 29.64 in 3.0 mi Calm Calm - 0.00 in Rain Light Rain
8:13 AM 68.0 °F 68.0 °F 100% 29.64 in 2.5 mi Calm Calm - 0.00 in Rain Light Rain
8:16 AM 68.0 °F 68.0 °F 100% 29.64 in 3.0 mi Calm Calm - 0.00 in Rain Light Rain
8:29 AM 68.0 °F 68.0 °F 100% 29.64 in 5.0 mi Calm Calm - 0.00 in   Overcast
8:53 AM 69.1 °F 69.1 °F 100% 29.64 in 6.0 mi Calm Calm - 0.00 in   Overcast
9:39 AM 69.8 °F 68.0 °F 94% 29.65 in 10.0 mi Calm Calm - N/A   Overcast
9:53 AM 70.0 °F 68.0 °F 93% 29.65 in 10.0 mi Calm Calm - N/A   Overcast
10:00 AM 69.8 °F 66.2 °F 88% 29.64 in 10.0 mi North 4.6 mph - N/A   Overcast
10:53 AM 73.9 °F 66.9 °F 79% 29.64 in 10.0 mi NNW 4.6 mph - N/A   Mostly Cloudy
11:53 AM 73.9 °F 64.9 °F 73% 29.63 in 10.0 mi Variable 3.5 mph - N/A   Mostly Cloudy
12:53 PM 75.9 °F 64.9 °F 69% 29.62 in 10.0 mi West 8.1 mph - N/A   Mostly Cloudy
1:53 PM 75.0 °F 66.9 °F 76% 29.61 in 10.0 mi SW 9.2 mph - N/A   Clear
2:53 PM 75.0 °F 64.9 °F 71% 29.62 in 10.0 mi SW 8.1 mph 20.7 mph N/A   Scattered Clouds
3:53 PM 75.9 °F 60.1 °F 58% 29.62 in 10.0 mi SW 10.4 mph - N/A   Mostly Cloudy
4:53 PM 75.9 °F 64.0 °F 67% 29.62 in 10.0 mi Variable 4.6 mph - N/A   Clear
5:53 PM 73.9 °F 63.0 °F 68% 29.64 in 10.0 mi Variable 4.6 mph - N/A   Clear
6:53 PM 71.1 °F 62.1 °F 73% 29.67 in 10.0 mi NW 3.5 mph - N/A   Scattered Clouds
7:53 PM 68.0 °F 59.0 °F 73% 29.71 in 10.0 mi NW 5.8 mph - N/A   Mostly Cloudy
8:53 PM 66.9 °F 59.0 °F 76% 29.73 in 10.0 mi NNW 10.4 mph - N/A   Overcast
9:53 PM 64.9 °F 59.0 °F 81% 29.75 in 10.0 mi NW 3.5 mph - N/A   Overcast
10:53 PM 63.0 °F 57.0 °F 81% 29.76 in 10.0 mi NNW 6.9 mph - N/A   Clear
11:53 PM 62.1 °F 55.9 °F 80% 29.77 in 10.0 mi NW 6.9 mph - N/A   Scattered Clouds